Location: Igon
(43.1667°N, 0.2333°W)
Time: 22:24:42
(UTC+00:00)

Cosmos 1937 Rocket - Visible Passes

Search period start: 10 April 2021 00:00
Search period end: 20 April 2021 00:00
Orbit: 747 x 779 km, 74.0° (Epoch: 10 April)

Date Brightness Start Highest point End Pass type
(mag) Time Alt. Az. Time Alt. Az. Time Alt. Az.
10 Apr 6.1 03:19:33 10° SE 03:22:44 17° E 03:25:55 10° ENE visible
11 Apr 3.6 04:20:31 10° SSW 04:25:40 79° ESE 04:30:50 10° NNE visible
12 Apr 4.5 03:42:27 10° S 03:47:19 44° ESE 03:52:11 10° NNE visible
13 Apr 5.4 03:04:54 10° SSE 03:09:03 25° E 03:13:14 10° NE visible
13 Apr 4.0 04:45:56 10° SW 04:50:46 40° WNW 04:55:38 10° N visible
14 Apr 6.0 02:28:16 10° SE 02:30:55 14° E 02:33:35 10° ENE visible
14 Apr 3.4 04:07:40 13° SSW 04:12:13 70° WNW 04:17:22 10° NNE visible
15 Apr 3.7 03:30:21 21° S 03:33:47 68° ESE 03:38:53 10° NNE visible
16 Apr 4.6 02:52:59 24° SSE 02:55:27 38° ESE 03:00:11 10° NE visible
16 Apr 4.5 04:33:10 10° WSW 04:37:29 28° WNW 04:41:53 10° N visible
17 Apr 5.4 02:15:33 19° SE 02:17:14 22° E 02:21:06 10° NE visible
17 Apr 3.9 03:55:44 21° SW 03:58:50 46° WNW 04:03:47 10° N visible
18 Apr 5.9 01:38:04 11° ESE 01:39:07 12° E 01:41:03 10° ENE visible
18 Apr 3.4 03:18:15 37° SSW 03:20:18 80° WNW 03:25:28 10° NNE visible
19 Apr 3.8 02:40:42 46° SSE 02:41:54 58° ESE 02:46:57 10° NNE visible
19 Apr 5.0 04:20:52 11° W 04:24:16 20° NW 04:27:58 10° N visible
